Location: Laterina
(43.5167°N, 11.7167°E)
Time: 15:09:16
(UTC+00:00)

USA 186 - Pass Details

Date: 24 September 2020
Orbit: 261 x 425 km, 96.9° (Epoch: 12 October)

Event Time Altitude Azimuth Distance (km) Brightness Sun altitude
Exits shadow 18:11:22 22° 97° (E) 969 2.9 -12.6°
Maximum altitude 18:12:14 25° 71° (ENE) 895 2.9 -12.7°
Drops below altitude 10° 18:14:59 10° 14° (NNE) 1,531 4.6 -13.2°
Sets 18:17:14 0° 1° (N) 2,408 5.7 -13.6°
